| time (UTC) | temp F | wind direction | speed knots | gust knots | rain 1hr in | rain 24hr in | rain mn in | humidity % | barometer mb |
| 20260831181608 | 73 | 86 | 2.6 | 6.1 | 0.00 | 0.69 | 0.15 | 64 | 1018.1 |
| 20260831180037 | 74 | 189 | 1.7 | 6.1 | 0.00 | 0.69 | 0.15 | 63 | 1018.4 |
| 20260831174503 | 74 | 146 | 2.6 | 6.1 | 0.00 | 0.69 | 0.15 | 63 | 1018.1 |
| 20260831173038 | 72 | 153 | 0.9 | 5.2 | 0.00 | 0.69 | 0.15 | 65 | 1018.3 |
| 20260831171609 | 73 | 104 | 1.7 | 7.0 | 0.00 | 0.69 | 0.15 | 68 | 1018.4 |
| 20260831170035 | 72 | 119 | 1.7 | 5.2 | 0.00 | 0.69 | 0.15 | 69 | 1018.6 |
| 20260831164614 | 72 | 147 | 2.6 | 7.8 | 0.00 | 0.69 | 0.15 | 68 | 1018.6 |
| 20260831163037 | 72 | 156 | 3.5 | 9.6 | 0.00 | 0.69 | 0.15 | 68 | 1018.6 |
| 20260831161505 | 72 | 72 | 4.3 | 7.8 | 0.00 | 0.69 | 0.15 | 73 | 1018.7 |
| 20260831160028 | 71 | 96 | 4.3 | 9.6 | 0.00 | 0.69 | 0.15 | 76 | 1018.6 |
| 20260831154613 | 70 | 68 | 4.3 | 9.6 | 0.00 | 0.69 | 0.15 | 77 | 1019.1 |
| 20260831153031 | 71 | 64 | 2.6 | 8.7 | 0.00 | 0.69 | 0.15 | 78 | 1019.1 |
| 20260831151600 | 70 | 54 | 3.5 | 7.8 | 0.00 | 0.69 | 0.15 | 78 | 1018.9 |
| 20260831150019 | 70 | 75 | 1.7 | 7.0 | 0.00 | 0.69 | 0.15 | 78 | 1019.0 |
| 20260831144536 | 70 | 29 | 3.5 | 7.8 | 0.00 | 0.69 | 0.15 | 77 | 1019.0 |
| 20260831143114 | 70 | 66 | 3.5 | 8.7 | 0.00 | 0.69 | 0.15 | 79 | 1018.8 |
| 20260831141539 | 70 | 37 | 4.3 | 8.7 | 0.00 | 0.69 | 0.15 | 82 | 1018.9 |
| 20260831140003 | 69 | 60 | 4.3 | 9.6 | 0.00 | 0.69 | 0.15 | 85 | 1018.7 |
| 20260831134546 | 69 | 100 | 4.3 | 9.6 | 0.00 | 0.69 | 0.15 | 85 | 1018.4 |
| 20260831133007 | 69 | 37 | 4.3 | 9.6 | 0.00 | 0.69 | 0.15 | 86 | 1018.3 |
| 20260831131557 | 68 | 31 | 4.3 | 10.4 | 0.00 | 0.69 | 0.15 | 87 | 1018.3 |
| 20260831130007 | 68 | 44 | 3.5 | 8.7 | 0.00 | 0.69 | 0.15 | 88 | 1018.3 |
| 20260831124545 | 68 | 62 | 3.5 | 8.7 | 0.00 | 0.69 | 0.15 | 88 | 1018.4 |
| 20260831123006 | 68 | 73 | 4.3 | 8.7 | 0.00 | 0.69 | 0.15 | 89 | 1018.4 |
| 20260831121550 | 67 | 60 | 0.9 | 5.2 | 0.00 | 0.69 | 0.15 | 91 | 1018.2 |
| 20260831120017 | 66 | 41 | 2.6 | 7.8 | 0.00 | 0.69 | 0.15 | 91 | 1018.2 |
| 20260831114554 | 66 | 68 | 3.5 | 7.8 | 0.00 | 0.69 | 0.15 | 93 | 1018.1 |
| 20260831113021 | 66 | 48 | 2.6 | 7.0 | 0.00 | 0.69 | 0.15 | 94 | 1017.9 |
| 20260831111605 | 66 | 51 | 2.6 | 6.1 | 0.00 | 0.69 | 0.15 | 94 | 1017.8 |
| 20260831110033 | 66 | 65 | 2.6 | 5.2 | 0.00 | 0.69 | 0.15 | 95 | 1017.7 |
| 20260831104513 | 66 | 79 | 1.7 | 5.2 | 0.01 | 0.69 | 0.15 | 95 | 1017.5 |
| 20260831103038 | 66 | 43 | 1.7 | 4.3 | 0.01 | 0.69 | 0.15 | 95 | 1017.7 |
| 20260831101609 | 66 | 53 | 2.6 | 6.1 | 0.01 | 0.69 | 0.15 | 94 | 1017.0 |
| 20260831100047 | 66 | 48 | 1.7 | 5.2 | 0.01 | 0.69 | 0.15 | 94 | 1016.9 |
| 20260831094522 | 66 | 67 | 1.7 | 6.1 | 0.00 | 0.68 | 0.14 | 94 | 1016.8 |
| 20260831093056 | 66 | 50 | 1.7 | 4.3 | 0.00 | 0.68 | 0.14 | 94 | 1016.7 |
| 20260831091521 | 66 | 5 | 1.7 | 5.2 | 0.00 | 0.68 | 0.14 | 95 | 1016.6 |
| 20260831090123 | 66 | 40 | 1.7 | 5.2 | 0.00 | 0.68 | 0.14 | 95 | 1016.4 |
| 20260831084525 | 67 | 356 | 1.7 | 6.1 | 0.00 | 0.68 | 0.14 | 95 | 1016.4 |
| 20260831083112 | 67 | 21 | 1.7 | 4.3 | 0.00 | 0.68 | 0.14 | 95 | 1016.4 |
| 20260831081521 | 67 | 353 | 2.6 | 6.1 | 0.00 | 0.68 | 0.14 | 95 | 1016.1 |
| 20260831080123 | 67 | 355 | 2.6 | 5.2 | 0.00 | 0.68 | 0.14 | 95 | 1016.1 |
| 20260831074503 | 68 | 360 | 0.0 | 6.1 | 0.00 | 0.68 | 0.14 | 95 | 1015.9 |
| 20260831073041 | 68 | 73 | 0.0 | 2.6 | 0.00 | 0.68 | 0.14 | 95 | 1015.8 |
| 20260831071606 | 68 | 73 | 0.9 | 2.6 | 0.00 | 0.68 | 0.14 | 95 | 1015.6 |
| 20260831070035 | 68 | 73 | 0.0 | 2.6 | 0.00 | 0.68 | 0.14 | 95 | 1015.5 |
| 20260831064511 | 68 | 73 | 0.0 | 3.5 | 0.00 | 0.68 | 0.14 | 95 | 1015.5 |
| 20260831063051 | 68 | 73 | 0.9 | 3.5 | 0.00 | 0.68 | 0.14 | 95 | 1015.5 |
| 20260831061503 | 68 | 73 | 0.0 | 4.3 | 0.00 | 0.68 | 0.14 | 95 | 1015.5 |
| 20260831060032 | 69 | 73 | 0.0 | 6.1 | 0.00 | 0.68 | 0.14 | 95 | 1015.4 |
| 20260831054612 | 69 | 355 | 0.9 | 2.6 | 0.07 | 0.68 | 0.14 | 94 | 1015.3 |
| 20260831053057 | 69 | 356 | 0.0 | 0.0 | 0.17 | 0.68 | 0.14 | 94 | 1015.3 |
| 20260831051516 | 69 | 356 | 0.0 | 0.0 | 0.32 | 0.68 | 0.14 | 94 | 1015.2 |
| 20260831050057 | 69 | 356 | 0.0 | 2.6 | 0.45 | 0.68 | 0.14 | 94 | 1015.2 |
| 20260831044540 | 69 | 9 | 0.9 | 5.2 | 0.52 | 0.60 | 0.06 | 94 | 1015.4 |
| 20260831043103 | 70 | 297 | 0.0 | 3.5 | 0.47 | 0.51 | 0.51 | 94 | 1015.6 |
| 20260831041532 | 70 | 283 | 0.9 | 4.3 | 0.34 | 0.35 | 0.35 | 94 | 1015.6 |
| 20260831040106 | 70 | 273 | 2.6 | 7.0 | 0.23 | 0.23 | 0.23 | 94 | 1015.8 |
| 20260831034536 | 70 | 252 | 1.7 | 7.0 | 0.08 | 0.08 | 0.08 | 93 | 1015.8 |
| 20260831033112 | 71 | 259 | 2.6 | 7.0 | 0.04 | 0.04 | 0.04 | 93 | 1015.8 |
| 20260831031551 | 71 | 277 | 0.9 | 8.7 | 0.01 | 0.01 | 0.01 | 92 | 1015.9 |
| 20260831030020 | 71 | 277 | 1.7 | 7.0 | 0.00 | 0.00 | 0.00 | 91 | 1016.1 |
| 20260831024559 | 71 | 297 | 3.5 | 9.6 | 0.00 | 0.00 | 0.00 | 91 | 1016.1 |
| 20260831023033 | 71 | 252 | 4.3 | 11.3 | 0.00 | 0.00 | 0.00 | 91 | 1015.7 |
| 20260831021616 | 72 | 272 | 5.2 | 17.4 | 0.00 | 0.00 | 0.00 | 90 | 1016.1 |
| 20260831020031 | 72 | 285 | 5.2 | 20.9 | 0.00 | 0.00 | 0.00 | 90 | 1016.1 |
| 20260831014611 | 72 | 274 | 6.1 | 15.6 | 0.00 | 0.00 | 0.00 | 89 | 1015.9 |
| 20260831013043 | 72 | 262 | 4.3 | 17.4 | 0.00 | 0.00 | 0.00 | 89 | 1016.0 |
| 20260831011510 | 72 | 283 | 7.0 | 14.8 | 0.00 | 0.00 | 0.00 | 89 | 1015.9 |
| 20260831010100 | 72 | 283 | 6.1 | 18.2 | 0.00 | 0.00 | 0.00 | 88 | 1015.8 |
| 20260831004519 | 72 | 283 | 6.1 | 15.6 | 0.00 | 0.00 | 0.00 | 88 | 1015.9 |
| 20260831003104 | 72 | 207 | 6.1 | 14.8 | 0.00 | 0.00 | 0.00 | 88 | 1015.8 |
| 20260831001528 | 72 | 272 | 6.1 | 15.6 | 0.00 | 0.00 | 0.00 | 89 | 1015.7 |
| 20260831000105 | 72 | 124 | 3.5 | 18.2 | 0.00 | 0.00 | 0.00 | 89 | 1015.6 |
| 20260830234525 | 72 | 277 | 5.2 | 18.2 | 0.00 | 0.00 | 0.00 | 88 | 1015.4 |
| 20260830233101 | 72 | 124 | 5.2 | 12.2 | 0.00 | 0.00 | 0.00 | 88 | 1015.5 |
| 20260830231531 | 72 | 257 | 2.6 | 13.9 | 0.00 | 0.00 | 0.00 | 88 | 1015.4 |
| 20260830230003 | 72 | 124 | 6.1 | 16.5 | 0.00 | 0.00 | 0.00 | 88 | 1015.4 |
| 20260830224542 | 72 | 124 | 6.1 | 17.4 | 0.00 | 0.00 | 0.00 | 87 | 1015.4 |
| 20260830223012 | 73 | 124 | 6.1 | 14.8 | 0.00 | 0.00 | 0.00 | 87 | 1015.5 |
| 20260830220108 | 73 | 275 | 7.0 | 17.4 | 0.00 | 0.00 | 0.00 | 87 | 1015.6 |
| 20260830214532 | 73 | 255 | 4.3 | 13.9 | 0.00 | 0.00 | 0.00 | 86 | 1016.0 |
| 20260830213113 | 73 | 269 | 3.5 | 14.8 | 0.00 | 0.00 | 0.00 | 85 | 1015.9 |
| 20260830211528 | 73 | 124 | 4.3 | 13.0 | 0.00 | 0.00 | 0.00 | 84 | 1016.0 |
| 20260830210108 | 74 | 272 | 5.2 | 15.6 | 0.00 | 0.00 | 0.00 | 81 | 1016.1 |
| 20260830204542 | 74 | 272 | 6.1 | 13.0 | 0.00 | 0.00 | 0.00 | 82 | 1016.1 |
| 20260830203012 | 74 | 255 | 2.6 | 13.0 | 0.00 | 0.00 | 0.00 | 81 | 1016.0 |
| 20260830201547 | 74 | 124 | 6.1 | 16.5 | 0.00 | 0.00 | 0.00 | 79 | 1016.1 |
| 20260830200016 | 76 | 281 | 4.3 | 14.8 | 0.00 | 0.00 | 0.00 | 77 | 1016.2 |
| 20260830194556 | 76 | 124 | 3.5 | 11.3 | 0.00 | 0.00 | 0.00 | 76 | 1016.4 |
| 20260830193030 | 78 | 124 | 5.2 | 14.8 | 0.00 | 0.00 | 0.00 | 72 | 1016.5 |
| 20260830191555 | 78 | 243 | 3.5 | 13.9 | 0.00 | 0.00 | 0.00 | 71 | 1016.5 |
| 20260830190026 | 76 | 273 | 7.8 | 13.9 | 0.00 | 0.00 | 0.00 | 74 | 1016.8 |
| 20260830184608 | 77 | 265 | 5.2 | 13.0 | 0.00 | 0.00 | 0.00 | 73 | 1017.1 |
| 20260830183044 | 76 | 124 | 7.0 | 15.6 | 0.00 | 0.00 | 0.00 | 76 | 1017.2 |